User: anonymous   Login
Location: Anuling
(14.1239°N, 120.8922°E)
Time: 13:12:59
(UTC+00:00)
Language:

YAOGAN 1 - Orbit

View from above orbital plane
View from above orbital plane
View from above satellite
View from above satellite

Ground track
Ground track

The orbit is defined by the following mean orbital elements,

1 29092U          26067.07254823 +.00000000 +00000-0 +15412-3 0 00003
2 29092  97.7557  90.3432 0001472  93.0812 267.0573 14.87581660    08
Epoch (UTC): 08 March 2026 01:44:28
Eccentricity: 0.0001472
inclination: 97.7557°
perigee height: 604 km
apogee height: 607 km
right ascension of ascending node: 90.3432°
argument of perigee: 93.0812°
revolutions per day: 14.87581660
mean anomaly at epoch: 267.0573°

The dashed part of the orbit path shows where the satellite is in the earth's shadow,  

DLR